Hourly Data Report for January 22, 2012

HALIFAX STANFIELD INT'L A
NOVA SCOTIA

44°52'48.060" N
63°30'00.050" W
145.40 m
8202250
71395
YHZ

Download Data

Hourly Data (January 2012)
Hourly Data Report for January 22, 2012
TIME
LST
Temp Definition
°C
Dew Point Definition
°C
Rel Hum Definition
%
Precip. Amount Definition
mm

Wind Dir Definition
10's deg

Wind Spd Definition
km/h
Visibility Definition
km
Stn Press Definition
kPa
Hmdx Definition


Wind Chill Definition


Weather Definition


00:00 -9.2 -12.4 78   34 22 24.1 100.36   -17 Cloudy
01:00 -11.3 -14.0 80   34 24 24.1 100.44   -20 Snow Showers
02:00 -13.1 -16.2 77   35 19 24.1 100.54   -22 Mainly Clear
03:00 -14.4 -17.0 81   34 20 24.1 100.58   -23 Clear
04:00 -15.1 -17.8 80   34 22 24.1 100.61   -25 Clear
05:00 -15.2 -17.9 80   34 22 24.1 100.68   -25 Clear
06:00 -15.7 -18.2 81   34 17 24.1 100.80   -24 Clear
07:00 -15.2 -17.4 83   33 19 24.1 100.92   -24 Clear
08:00 -15.4 -17.9 81   34 22 24.1 101.03   -25 Clear
09:00 -14.4 -17.8 75   34 17 24.1 101.18   -23 Clear
10:00 -12.9 -17.4 69   33 19 24.1 101.25   -21 Clear
11:00 -11.5 -17.2 63   34 24 24.1 101.32   -21 Clear
12:00 -10.4 -17.5 56   33 26 24.1 101.31   -19 Clear
13:00 -9.9 -17.4 54   34 22 24.1 101.28   -18 Mainly Clear
14:00 -9.4 -17.2 53   34 32 24.1 101.23   -19 Mainly Clear
15:00 -9.1 -18.5 46   34 24 24.1 101.27   -17 Mostly Cloudy
16:00 -9.8 -17.8 52   34 15 24.1 101.37   -16 Mostly Cloudy
17:00 -10.5 -17.7 55   34 13 24.1 101.43   -17 Mainly Clear
18:00 -11.4 -18.1 58   33 6 24.1 101.54   -15 Mainly Clear
19:00 -13.2 -16.6 76     0 24.1 101.58     Mainly Clear
20:00 -12.4 -17.0 68   2 4 24.1 101.63   -15 Mainly Clear
21:00 -13.2 -18.3 65   5 4 24.1 101.62   -16 Mainly Clear
22:00 -13.5 -17.5 72   16 4 24.1 101.63   -16 Mainly Clear
23:00 -13.9 -17.6 74   17 4 24.1 101.69   -17 Mainly Clear

Notes on Data Quality.

Legend

  • E = Estimated
  • M = Missing
  • NA = Not Available*
  • [empty] = Indicates an unobserved value
Date modified: